Lid_Strength_Index
2 2 1 1 1 1 1 2 1 1 2 2 2 2 2 2 3 4 6 1 -1 -2 -1 0 1 1 1 3 2 3 11 14 11 10 10 6 7 5 4 5 4 4 4 3 2
2 2 2 2 1 2 2 2 2 2 2 2 2 2 2 2 4 5 -0 -5 -4 -2 3 2 3 2 4 4 4 6 11 11 7 7 8 7 6 6 6 6 5 5 3 2 2
2 2 2 2 2 2 2 2 2 2 2 2 2 2 2 2 4 3 -3 -5 -3 -2 2 1 2 2 4 4 5 6 10 7 6 6 5 6 6 5 7 9 6 6 4 3 3
2 2 2 2 2 2 2 2 2 2 2 2 2 2 2 2 7 2 -4 -2 -2 2 2 2 2 4 5 6 5 9 7 7 6 5 6 7 6 7 7 7 4 3 3 3 3
2 2 2 2 2 2 2 2 2 3 2 2 1 1 1 4 4 -0 -3 -2 3 2 2 2 3 4 6 5 5 7 7 6 5 5 6 5 7 7 7 5 4 3 3 3 3
2 2 2 2 2 2 2 3 3 3 2 2 1 1 2 5 -0 0 1 3 3 2 2 2 3 3 4 5 6 6 6 6 6 6 6 7 7 7 6 4 4 4 4 3 3
2 2 2 2 2 2 3 3 3 3 2 2 1 1 3 3 -0 -1 -0 1 2 1 2 1 1 3 3 6 4 5 8 8 7 6 7 6 8 8 5 4 5 4 4 3 3
2 2 2 3 3 3 3 3 3 2 2 1 0 1 4 1 -1 0 -0 1 1 1 1 1 1 2 3 3 5 7 7 13 8 7 6 7 11 7 5 5 6 5 4 4 3
3 2 2 3 3 3 4 3 2 1 0 1 1 2 4 0 2 0 0 2 1 1 1 1 2 3 4 6 8 8 13 11 10 6 7 7 10 7 5 5 6 5 5 4 4
2 3 3 3 3 4 4 3 1 1 1 0 1 4 2 3 2 2 0 1 2 2 3 3 4 5 6 7 11 10 10 9 10 8 7 8 9 7 6 6 6 6 5 5 4
3 3 3 3 4 4 3 0 3 4 2 4 4 4 3 1 1 3 1 2 2 3 6 4 6 8 7 6 6 7 8 8 7 6 8 8 8 8 6 6 6 6 5 5 4
3 3 3 3 4 4 3 2 2 2 5 3 3 2 2 2 4 3 1 4 4 6 5 6 7 5 5 5 6 7 8 8 7 6 7 8 8 7 7 7 6 6 5 5 4
4 4 4 4 4 4 1 2 -0 1 5 4 3 3 3 2 4 4 2 3 5 6 6 7 6 5 5 6 7 7 8 8 8 6 6 8 9 10 8 6 5 5 5 4 4
4 4 4 5 5 1 2 -0 -0 0 7 6 4 3 2 2 4 2 2 3 5 6 6 6 5 6 6 7 6 8 6 7 7 8 10 8 13 11 10 10 7 6 5 5 4
4 4 5 5 3 2 1 0 0 2 13 5 5 2 3 4 4 4 2 3 6 6 6 7 6 6 7 7 6 7 6 7 7 8 9 10 12 11 11 12 10 6 5 4 4
4 4 5 4 3 2 -1 0 2 8 12 7 5 5 6 4 4 3 4 3 3 5 5 6 4 5 6 5 5 5 6 6 7 8 12 9 11 11 10 8 7 6 5 5 4
5 5 5 1 2 -1 -0 2 8 11 6 7 6 5 6 6 6 5 5 6 7 9 9 7 6 5 5 6 5 6 8 11 12 13 14 10 13 9 8 7 6 6 5 5 4
6 7 3 1 -1 -1 1 6 11 7 7 6 6 6 7 6 6 6 6 7 5 6 8 9 10 7 6 6 7 7 8 11 15 14 12 10 14 11 6 5 4 4 4 4 4
6 1 1 -0 -1 -0 4 10 9 7 6 6 6 7 7 6 6 6 6 7 6 6 8 9 9 5 5 5 5 7 9 7 9 9 11 10 8 6 5 5 5 5 4 4 4
2 2 1 -0 -1 2 6 10 7 5 5 5 8 7 8 7 7 7 7 6 6 5 5 7 9 6 6 5 5 6 6 10 9 13 13 10 10 12 9 8 6 5 5 4 4
3 4 1 -1 0 4 8 7 6 4 5 6 7 7 7 7 7 7 7 6 5 5 5 6 7 8 6 7 8 7 8 8 8 9 12 13 12 7 8 8 7 5 5 4 4
2 6 1 -0 6 5 7 6 8 5 4 5 5 6 7 7 8 7 7 6 5 5 7 5 7 9 8 6 5 6 7 7 10 11 10 10 10 6 6 6 5 7 7 5 3
4 3 1 1 8 7 5 6 5 6 5 6 6 6 6 7 9 7 7 5 4 5 7 6 8 10 9 7 6 7 7 7 7 8 10 11 11 5 5 5 5 7 6 5 3
4 6 4 3 3 6 6 7 7 5 6 5 6 5 6 7 6 8 7 5 5 5 4 4 7 9 11 9 7 9 7 7 7 10 9 9 8 7 6 5 5 5 5 4 4
3 5 4 7 5 5 5 6 7 7 5 5 6 6 7 9 8 8 7 6 5 5 5 6 9 8 8 7 8 8 8 7 8 8 9 8 8 8 6 5 5 4 5 5 4
5 5 5 6 4 5 7 6 6 6 6 7 7 6 6 8 8 9 7 7 8 6 7 6 10 9 9 7 7 8 8 8 7 7 7 7 7 5 5 5 6 5 5 5 5
3 3 4 6 5 6 6 6 6 6 6 5 5 6 7 6 5 5 5 5 6 7 8 8 9 11 13 9 9 10 8 8 7 6 7 8 6 6 6 5 6 5 5 5 5